Home > Weather > France > Strasbourg > Past weeks

Flag for France Weather past 2 weeks in Strasbourg, France

50 °F

Mostly cloudy.

Feels Like: 48 °F
Forecast: 39 / 51 °F
Wind: 6 mph from Southwest

Location: Strasbourg Airport

Current Time: Dec 1, 2015 at 7:24:52 PM

Latest Report: Dec 1, 2015 at 6:30 PM

Visibility: N/A

Pressure: 30.42 "Hg

Humidity: 88%

Dew point: 46 °F

Location of StrasbourgLocation

Historic Weather in Strasbourg — Graph


Strasbourg temperature yesterday

Maximum temperature yesterday: 55 °F (at 3:00 PM)
Minimum temperature yesterday: 50 °F (at 8:00 AM)
Average temperature yesterday: 53 °F

Past Weeks' High & Low Weather Summary

High64 °F (Nov 18, 1:30 PM)100% (Nov 23, 8:30 AM)30.42 "Hg (Nov 23, 8:30 AM)
Low25 °F (Nov 24, 7:30 AM)48% (Nov 18, 11:30 AM)29.45 "Hg (Nov 21, 11:00 AM)
Average45 °F79%30.02 "Hg
* Reported Nov 16 6:00 PM — Dec 1 6:00 PM, Strasbourg, Weather by CustomWeather, © 2015

Note: Actual official high and low records may vary slightly from our data, if they occured in-between our weather recording intervals... More about our weather records


Strasbourg weather history for previous 24 hours

Time TempWeatherWind HumidityBarometerVisibility
6:00 PM
Tue, Dec 1
52 °FOvercast.6 mph82%30.42 "HgN/A
5:30 PM52 °FMostly cloudy.7 mph82%30.42 "HgN/A
5:00 PM54 °FMostly cloudy.10 mph72%30.42 "HgN/A
4:30 PM54 °FMore clouds than sun.7 mph72%30.42 "HgN/A
4:00 PM54 °FMostly cloudy.7 mph72%30.42 "HgN/A
3:30 PM54 °FOvercast.7 mph77%30.42 "HgN/A
3:00 PM54 °FOvercast.9 mph77%30.42 "HgN/A
2:30 PM54 °FOvercast.9 mph77%30.39 "HgN/A
2:00 PM54 °FOvercast.9 mph77%30.39 "HgN/A
1:30 PM52 °FMostly cloudy.9 mph82%30.39 "HgN/A
1:00 PM52 °FMostly cloudy.10 mph82%30.39 "HgN/A
12:30 PM52 °FLight rain. Overcast.10 mph82%30.39 "HgN/A
12:00 PM52 °FMostly cloudy.10 mph82%30.39 "HgN/A
11:30 AM54 °FCloudy.9 mph77%30.36 "HgN/A
11:00 AM52 °FPartly sunny.9 mph82%30.36 "HgN/A
10:30 AM52 °FMore clouds than sun.10 mph82%30.36 "HgN/A
10:00 AM52 °FMostly cloudy.12 mph82%30.36 "HgN/A
9:30 AM50 °FMostly cloudy.12 mph88%30.36 "HgN/A
8:30 AM50 °FLight rain. Mostly cloudy.13 mph88%30.33 "HgN/A
8:00 AM50 °FLight rain. Mostly cloudy.13 mph88%30.33 "HgN/A
7:30 AM50 °FLight rain. Mostly cloudy.14 mph88%30.33 "HgN/A
7:00 AM50 °FLight rain. Mostly cloudy.13 mph82%30.33 "HgN/A
6:30 AM50 °FLight rain. Mostly cloudy.14 mph88%30.30 "HgN/A
6:00 AM50 °FLight rain. Overcast.13 mph82%30.30 "HgN/A
5:30 AM50 °FLight rain. Overcast.12 mph88%30.30 "HgN/A
5:00 AM50 °FLight rain. Overcast.14 mph82%30.30 "HgN/A
4:30 AM50 °FLight rain. Overcast.14 mph82%30.30 "HgN/A
4:00 AM50 °FLight rain. Overcast.13 mph88%30.30 "HgN/A
3:30 AM50 °FLight rain. Overcast.12 mph82%30.27 "HgN/A
3:00 AM52 °FLight rain. Mostly cloudy.14 mph77%30.30 "HgN/A
1:30 AM54 °FOvercast.20 mph67%30.24 "HgN/A
1:00 AM54 °FOvercast.22 mph67%30.24 "HgN/A
12:30 AM55 °FMostly cloudy.25 mph63%30.24 "HgN/A
12:00 AM55 °FOvercast.24 mph63%30.24 "HgN/A
11:30 PM
Mon, Nov 30
55 °FOvercast.28 mph63%30.24 "HgN/A
11:00 PM54 °FPassing clouds.17 mph67%30.24 "HgN/A
10:30 PM54 °FPassing clouds.15 mph67%30.24 "HgN/A
10:00 PM54 °FPassing clouds.15 mph67%30.24 "HgN/A
9:30 PM52 °FMostly cloudy.15 mph72%30.24 "HgN/A
9:00 PM54 °FMostly cloudy.15 mph67%30.24 "HgN/A
8:30 PM52 °FMostly cloudy.17 mph77%30.24 "HgN/A
8:00 PM52 °FMostly cloudy.15 mph77%30.24 "HgN/A
7:30 PM52 °FLight rain. Mostly cloudy.13 mph82%30.24 "HgN/A
7:00 PM54 °FMostly cloudy.15 mph72%30.24 "HgN/A
Weather by CustomWeather, © 2015

See weather overviewHow to use our weather pages